• în România
  • Lista ţărilor
  • Pe 7 zile
  • Temperatura apei
  • Hartă satelitară
  • Meteo pe hartă
  • Widget-uri
  • user-avatar
    Intrare

    Meteo pe oră la Stepanakert

    Astăzi, 18 August, Vineri

    Timp Temperatura Precipitaţii Vânt Presiune Umiditate
    00:00 +21°C° 0,1 mm 2 m/s 692 mmHg 60%
    01:00 +21°C° 0 mm 2 m/s 692 mmHg 61%
    02:00 +22°C° 0 mm 1 m/s 692 mmHg 61%
    03:00 +21°C° 0 mm 1 m/s 691 mmHg 64%
    04:00 +22°C° 0 mm 1 m/s 692 mmHg 63%
    05:00 +22°C° 0 mm 1 m/s 692 mmHg 62%
    06:00 +22°C° 0 mm 1 m/s 692 mmHg 62%
    07:00 +24°C° 0 mm 2 m/s 692 mmHg 55%
    08:00 +26°C° 0 mm 2 m/s 693 mmHg 48%
    09:00 +28°C° 0 mm 2 m/s 693 mmHg 41%
    10:00 +29°C° 0 mm 2 m/s 693 mmHg 38%
    11:00 +31°C° 0 mm 3 m/s 693 mmHg 35%
    12:00 +33°C° 0 mm 3 m/s 693 mmHg 32%
    13:00 +33°C° 0 mm 3 m/s 693 mmHg 31%
    14:00 +33°C° 0 mm 3 m/s 693 mmHg 31%
    15:00 +34°C° 0 mm 3 m/s 692 mmHg 30%
    16:00 +33°C° 0 mm 3 m/s 692 mmHg 32%
    17:00 +31°C° 0 mm 3 m/s 692 mmHg 34%
    18:00 +30°C° 0 mm 2 m/s 692 mmHg 36%
    19:00 +29°C° 0 mm 2 m/s 693 mmHg 42%
    20:00 +27°C° 0 mm 2 m/s 693 mmHg 47%
    21:00 +25°C° 0 mm 2 m/s 693 mmHg 53%
    22:00 +24°C° 0 mm 2 m/s 693 mmHg 55%
    23:00 +24°C° 0 mm 2 m/s 693 mmHg 57%

    Mâine, 19 August, Sâmbătă

    Timp Temperatura Precipitaţii Vânt Presiune Umiditate
    00:00 +23°C° 0 mm 2 m/s 693 mmHg 59%
    01:00 +23°C° 0 mm 2 m/s 693 mmHg 60%
    02:00 +21°C° 0 mm 2 m/s 693 mmHg 61%
    03:00 +22°C° 0 mm 1 m/s 693 mmHg 62%
    04:00 +22°C° 0 mm 1 m/s 694 mmHg 62%
    05:00 +22°C° 0 mm 1 m/s 694 mmHg 62%
    06:00 +22°C° 0 mm 1 m/s 694 mmHg 61%
    07:00 +25°C° 0 mm 2 m/s 694 mmHg 52%
    08:00 +27°C° 0 mm 2 m/s 695 mmHg 43%
    09:00 +29°C° 0 mm 2 m/s 695 mmHg 34%
    10:00 +30°C° 0 mm 3 m/s 695 mmHg 31%
    11:00 +31°C° 0 mm 3 m/s 695 mmHg 28%
    12:00 +33°C° 0 mm 3 m/s 695 mmHg 25%
    13:00 +34°C° 0 mm 4 m/s 695 mmHg 24%
    14:00 +34°C° 0 mm 4 m/s 695 mmHg 24%
    15:00 +34°C° 0 mm 4 m/s 694 mmHg 23%
    16:00 +33°C° 0 mm 4 m/s 694 mmHg 25%
    17:00 +32°C° 0 mm 4 m/s 694 mmHg 28%
    18:00 +30°C° 0 mm 4 m/s 694 mmHg 30%
    19:00 +28°C° 0 mm 3 m/s 694 mmHg 33%
    20:00 +26°C° 0 mm 3 m/s 695 mmHg 37%
    21:00 +24°C° 0 mm 2 m/s 695 mmHg 41%
    22:00 +24°C° 0 mm 2 m/s 695 mmHg 42%
    23:00 +23°C° 0 mm 2 m/s 695 mmHg 44%

    Poimâine, 20 August, Duminică

    Timp Temperatura Precipitaţii Vânt Presiune Umiditate
    00:00 +21°C° 0 mm 2 m/s 695 mmHg 46%
    01:00 +21°C° 0 mm 2 m/s 695 mmHg 46%
    02:00 +21°C° 0 mm 2 m/s 694 mmHg 46%
    03:00 +20°C° 0 mm 2 m/s 694 mmHg 46%
    04:00 +21°C° 0 mm 2 m/s 694 mmHg 45%
    05:00 +21°C° 0 mm 2 m/s 695 mmHg 43%
    06:00 +21°C° 0 mm 2 m/s 695 mmHg 42%
    07:00 +24°C° 0 mm 2 m/s 695 mmHg 37%
    08:00 +26°C° 0 mm 2 m/s 695 mmHg 32%
    09:00 +29°C° 0 mm 2 m/s 695 mmHg 27%
    10:00 +30°C° 0 mm 2 m/s 695 mmHg 25%
    11:00 +31°C° 0 mm 3 m/s 695 mmHg 23%
    12:00 +33°C° 0 mm 4 m/s 695 mmHg 21%
    13:00 +34°C° 0 mm 4 m/s 695 mmHg 21%
    14:00 +34°C° 0 mm 4 m/s 695 mmHg 21%
    15:00 +35°C° 0 mm 4 m/s 694 mmHg 20%
    16:00 +33°C° 0 mm 4 m/s 694 mmHg 23%
    17:00 +31°C° 0 mm 3 m/s 694 mmHg 25%
    18:00 +30°C° 0 mm 3 m/s 694 mmHg 27%
    19:00 +28°C° 0 mm 3 m/s 694 mmHg 32%
    20:00 +26°C° 0 mm 2 m/s 694 mmHg 37%
    21:00 +24°C° 0 mm 2 m/s 694 mmHg 42%
    22:00 +23°C° 0 mm 2 m/s 694 mmHg 44%
    23:00 +23°C° 0 mm 2 m/s 694 mmHg 45%

    21 August, Luni

    Timp Temperatura Precipitaţii Vânt Presiune Umiditate
    00:00 +21°C° 0 mm 2 m/s 694 mmHg 46%
    01:00 +21°C° 0 mm 2 m/s 694 mmHg 46%
    02:00 +21°C° 0 mm 2 m/s 693 mmHg 45%
    03:00 +21°C° 0 mm 2 m/s 693 mmHg 44%
    04:00 +21°C° 0 mm 2 m/s 693 mmHg 43%
    05:00 +21°C° 0 mm 2 m/s 693 mmHg 42%
    06:00 +21°C° 0 mm 2 m/s 694 mmHg 42%
    07:00 +24°C° 0 mm 2 m/s 694 mmHg 38%
    08:00 +27°C° 0 mm 2 m/s 694 mmHg 34%
    09:00 +29°C° 0 mm 2 m/s 694 mmHg 30%
    10:00 +30°C° 0 mm 2 m/s 694 mmHg 28%
    11:00 +31°C° 0 mm 3 m/s 694 mmHg 26%
    12:00 +34°C° 0 mm 3 m/s 694 mmHg 24%
    13:00 +34°C° 0 mm 3 m/s 693 mmHg 24%
    14:00 +34°C° 0 mm 3 m/s 693 mmHg 24%
    15:00 +35°C° 0 mm 3 m/s 693 mmHg 23%
    16:00 +34°C° 0 mm 3 m/s 692 mmHg 26%
    17:00 +33°C° 0 mm 3 m/s 692 mmHg 29%
    18:00 +31°C° 0 mm 2 m/s 692 mmHg 32%
    19:00 +29°C° 0 mm 2 m/s 692 mmHg 36%
    20:00 +27°C° 0 mm 2 m/s 692 mmHg 40%
    21:00 +25°C° 0 mm 2 m/s 693 mmHg 44%
    22:00 +24°C° 0 mm 2 m/s 692 mmHg 45%
    23:00 +24°C° 0 mm 2 m/s 692 mmHg 46%

    22 August, Marţi

    Timp Temperatura Precipitaţii Vânt Presiune Umiditate
    00:00 +23°C° 0 mm 2 m/s 692 mmHg 47%
    01:00 +23°C° 0 mm 2 m/s 692 mmHg 47%
    02:00 +23°C° 0 mm 2 m/s 692 mmHg 47%
    03:00 +22°C° 0 mm 1 m/s 692 mmHg 47%
    04:00 +22°C° 0 mm 1 m/s 692 mmHg 47%
    05:00 +23°C° 0 mm 1 m/s 692 mmHg 46%
    06:00 +23°C° 0 mm 1 m/s 692 mmHg 46%
    07:00 +25°C° 0 mm 2 m/s 693 mmHg 40%
    08:00 +27°C° 0 mm 2 m/s 693 mmHg 35%
    09:00 +30°C° 0 mm 2 m/s 693 mmHg 29%
    10:00 +31°C° 0 mm 2 m/s 693 mmHg 27%
    11:00 +33°C° 0 mm 3 m/s 693 mmHg 25%
    12:00 +34°C° 0 mm 3 m/s 693 mmHg 23%
    13:00 +35°C° 0 mm 3 m/s 692 mmHg 23%
    14:00 +35°C° 0 mm 3 m/s 692 mmHg 23%
    15:00 +36°C° 0 mm 3 m/s 692 mmHg 22%
    16:00 +35°C° 0 mm 3 m/s 692 mmHg 25%
    17:00 +33°C° 0 mm 3 m/s 692 mmHg 27%
    18:00 +31°C° 0 mm 3 m/s 692 mmHg 30%
    19:00 +29°C° 0 mm 2 m/s 692 mmHg 34%
    20:00 +27°C° 0 mm 2 m/s 692 mmHg 38%
    21:00 +25°C° 0 mm 2 m/s 692 mmHg 42%
    22:00 +24°C° 0 mm 2 m/s 692 mmHg 44%
    23:00 +24°C° 0 mm 2 m/s 692 mmHg 45%

    23 August, Miercuri

    Timp Temperatura Precipitaţii Vânt Presiune Umiditate
    00:00 +23°C° 0 mm 2 m/s 692 mmHg 47%
    01:00 +23°C° 0 mm 1 m/s 692 mmHg 48%
    02:00 +23°C° 0 mm 1 m/s 692 mmHg 48%
    03:00 +22°C° 0 mm 1 m/s 692 mmHg 49%
    04:00 +22°C° 0 mm 1 m/s 692 mmHg 48%
    05:00 +22°C° 0 mm 1 m/s 692 mmHg 47%
    06:00 +23°C° 0 mm 1 m/s 693 mmHg 47%
    07:00 +25°C° 0 mm 2 m/s 693 mmHg 41%
    08:00 +27°C° 0 mm 2 m/s 694 mmHg 35%
    09:00 +29°C° 0 mm 2 m/s 694 mmHg 28%
    10:00 +31°C° 0 mm 3 m/s 694 mmHg 26%
    11:00 +33°C° 0 mm 3 m/s 694 mmHg 24%
    12:00 +34°C° 0 mm 4 m/s 694 mmHg 22%
    13:00 +34°C° 0 mm 4 m/s 693 mmHg 22%
    14:00 +35°C° 0 mm 4 m/s 693 mmHg 22%
    15:00 +35°C° 0 mm 4 m/s 693 mmHg 22%
    16:00 +34°C° 0 mm 4 m/s 693 mmHg 24%
    17:00 +33°C° 0 mm 4 m/s 693 mmHg 26%
    18:00 +30°C° 0 mm 4 m/s 693 mmHg 28%
    19:00 +28°C° 0 mm 3 m/s 693 mmHg 31%
    20:00 +26°C° 0 mm 2 m/s 693 mmHg 35%
    21:00 +24°C° 0 mm 2 m/s 693 mmHg 39%
    22:00 +23°C° 0 mm 2 m/s 693 mmHg 40%
    23:00 +23°C° 0 mm 2 m/s 693 mmHg 40%
    Arată mai mult